Weather in Ochkyne

Ukraine / Sumi District     52°13′41″N   33°22′37″E
temp.,
°C
wind,
m/s
gust,
m/s
humid.,
%
clouds,
%
prec.,
mm/h
press.,
hPa
HPBL,
m
21 april, wed
wed2100:00+4ne4789100 0.0 1008508
03:00+4n3593100 0.0 1008352
06:00+4nnw2592100 0.0 1008339
09:00+5nw2381100 0.0 1009611
12:00+7w3469100 0.1 10101148
15:00+8wsw3469100 0.1 10111001
18:00+7sw458293 0.1 1012620
21:00+6s3783100 0.1 1014268
22 april, thu
thu2200:00+4s5109597 0.0 1014226
03:00+4s41090100 0.0 1015232
06:00+5s41089100 1.4 1015270
09:00+9s6108067 1.5 1015450
12:00+14sw9116286 0.3 10151628
15:00+14sw8116124 1.1 10151654
18:00+14sw71264100 1.6 10151006
21:00+10s5147976 1.9 1015326
23 april, fri
fri2300:00+9s5148470 0.4 1015325
03:00+8s4109256 0.6 1014264
06:00+7s4119368 0.3 1014311
09:00+9sw4687100 0.7 1014719
12:00+6nw5589100 2.1 1015409
15:00+5nw4790100 3.5 1015442
18:00+5nnw2588100 0.4 1014456
21:00+5wnw2592100 0.7 1014639
24 april, sat
sat2400:00+5wsw1291100 0.4 101245
03:00+4w3689100 1.9 1012516
06:00+4wsw4790100 0.6 1011304
09:00+6wnw4770100 0.7 1012659
12:00+9wnw675097 0.3 10121799
15:00+9w6744100 0.3 10122073
18:00+7wnw586419 1.1 10131255
21:00+4wnw397676 1.2 1014284
25 april, sun
sun2500:00+2wsw49835 0.0 1014235
03:00+1wsw411855 0.0 1014260
06:000wsw389355 0.0 1014198
09:00+5w687461 0.0 1014914
12:00+7wsw8104478 0.1 10142087
15:00+8wsw81235100 0.2 10132958
18:00+6w685851 0.1 10141489
21:00+3wsw497564 0.2 1014269